Flag for Germany Weather past 2 weeks in Castrop-Rauxel, North Rhine-Westphalia, Germany

Now
53 °F

Overcast.


Feels Like: 49 °F
Forecast: 41 / 49 °F
Wind: 10 mph from Southwest

Location: Duesseldorf

Current Time: Dec 23, 2014 at 3:21:22 AM

Latest Report: Dec 23, 2014 at 3:00 AM


Visibility: 25 mi

Pressure: 30.09 "Hg

Humidity: 75%

Dew point: 45 °F

Location of Castrop-RauxelLocation

Historic Weather in Castrop-Rauxel — Graph

°F

Castrop-Rauxel temperature yesterday

Maximum temperature yesterday: 53 °F (at 10:00 PM)
Minimum temperature yesterday: 47 °F (at 12:00 AM)
Average temperature yesterday: 50 °F

Past Weeks' High & Low Weather Summary

 TemperatureHumidityPressure
High55 °F (Dec 18, 7:00 PM)100% (Dec 14, 6:00 AM)30.41 "Hg (Dec 14, 6:00 AM)
Low30 °F (Dec 14, 6:00 AM)68% (Dec 10, 3:00 PM)29.41 "Hg (Dec 12, 1:00 PM)
Average43 °F86%29.98 "Hg
* Reported Dec 8 2:00 AM — Dec 23 2:00 AM, Castrop-Rauxel, Weather by CustomWeather, © 2014

Note: Actual official high and low records may vary slightly from our data, if they occured in-between our weather recording intervals... More about our weather records

Advertising

Castrop-Rauxel weather history for previous 24 hours

 ConditionsComfort  
Time TempWeatherWind HumidityBarometerVisibility
2:00 AM
Dec 23
53 °FOvercast.12 mph76%30.08 "Hg25 mi
1:00 AM53 °FOvercast.9 mph76%30.08 "Hg25 mi
12:00 AM53 °FOvercast.9 mph76%30.07 "Hg25 mi
11:00 PM
Dec 22
53 °FLow clouds.10 mph81%30.08 "Hg19 mi
10:00 PM53 °FLight rain. Overcast.10 mph81%30.08 "Hg12 mi
9:00 PM53 °FOvercast.10 mph83%30.07 "Hg12 mi
8:00 PM53 °FLight rain. Overcast.12 mph84%30.07 "Hg12 mi
7:00 PM53 °FOvercast.10 mph82%30.08 "Hg16 mi
6:00 PM52 °FOvercast.9 mph84%30.07 "Hg16 mi
5:00 PM51 °FOvercast.10 mph87%30.07 "Hg16 mi
3:00 PM50 °FRain. Low clouds.10 mph89%30.07 "Hg6 mi
2:00 PM50 °FLight rain. Low clouds.12 mph84%30.08 "Hg11 mi
1:00 PM49 °FLow clouds.10 mph85%30.09 "Hg9 mi
12:00 PM48 °FOvercast.10 mph87%30.11 "Hg11 mi
11:00 AM48 °FLight rain. Overcast.14 mph84%30.12 "Hg12 mi
10:00 AMN/APassing clouds.7 mphN/AN/A1 mi
9:00 AM48 °FLow clouds.13 mph84%30.13 "Hg16 mi
8:00 AM48 °FLow clouds.13 mph84%30.12 "Hg16 mi
7:00 AM48 °FLow clouds.13 mph83%30.12 "Hg19 mi
6:00 AM48 °FOvercast.14 mph82%30.13 "Hg19 mi
5:00 AM48 °FOvercast.14 mph82%30.13 "Hg16 mi
3:00 AM48 °FOvercast.14 mph80%30.17 "Hg16 mi
Weather by CustomWeather, © 2014

See weather overviewHow to use our weather pages